Stevensville, MD

2:34 AM EDT on June 25, 2017 (GMT -0400)
Stevensville

Weather History for KW29 - December, 2013

Change the Weather History Date:

Wednesday, December 18, 2013

  Actual Average (KESN) Record (KESN)
Temperature  
Mean Temperature 34 °F -  
Max Temperature 39 °F 44 °F 69 °F (2006)
Min Temperature 30 °F 27 °F 13 °F (1960)
Degree Days  
Heating Degree Days 30    
Moisture  
Dew Point 25 °F    
Average Humidity 71    
Maximum Humidity 93    
Minimum Humidity 42    
Precipitation  
Precipitation 0.00 in - - ()
Sea Level Pressure  
Sea Level Pressure 30.15 in    
Wind  
Wind Speed 7 mph (WNW)    
Max Wind Speed 17 mph    
Max Gust Speed 26 mph    
Visibility 9 miles    
Events      
Averages and records for this station are not official NWS values.
T = Trace of Precipitation, MM = Missing Value Source: NWS Daily Summary

Daily Weather History Graph

Daily Weather History Graph

Search for Another Location

Airport or City:

Trip Planner

Search our weather history database for the weather conditions in past years. The results will help you decide how hot, cold, wet, or windy it might be!

Date:

Astronomy

Dec. 18, 2013 Rise Set
Actual Time 7:19 AM EST 4:45 PM EST
Civil Twilight 6:49 AM EST 5:15 PM EST
Nautical Twilight 6:15 AM EST 5:48 PM EST
Astronomical Twilight 5:42 AM EST 6:21 PM EST
Moon 6:14 PM EST (12/18) 7:57 AM EST (12/18)
Length of Visible Light 10h 26m
Length of Day
9h 26m
Full, 98% of the Moon is Illuminated
Dec 18
Full
Dec 25
Last Quarter
Jan 1
New
Jan 7
First Quarter
Jan 15
Full

Hourly Weather History & Observations

Time (EST) Temp. Windchill Dew Point Humidity Pressure Visibility Wind Dir Wind Speed Gust Speed Precip Events Conditions
12:04 AM 32.0 °F 24.8 °F 30.2 °F 93% 29.99 in 7.0 mi NNW 8.1 mph - N/A   Clear
12:24 AM 32.0 °F 27.5 °F 30.2 °F 93% 29.99 in 7.0 mi NNW 4.6 mph - N/A   Clear
12:44 AM 32.0 °F 26.4 °F 28.4 °F 87% 29.99 in 7.0 mi North 5.8 mph - N/A   Clear
1:04 AM 32.0 °F 26.4 °F 28.4 °F 87% 30.00 in 7.0 mi NW 5.8 mph - N/A   Clear
1:24 AM 32.0 °F 26.4 °F 28.4 °F 87% 30.00 in 7.0 mi NW 5.8 mph - N/A   Clear
1:44 AM 32.0 °F 25.6 °F 28.4 °F 87% 30.01 in 7.0 mi WNW 6.9 mph - N/A   Clear
2:04 AM 32.0 °F 24.8 °F 28.4 °F 87% 30.02 in 7.0 mi NW 8.1 mph - N/A   Scattered Clouds
2:24 AM 32.0 °F 25.6 °F 28.4 °F 87% 30.03 in 7.0 mi WNW 6.9 mph - N/A   Scattered Clouds
2:44 AM 32.0 °F 26.4 °F 28.4 °F 87% 30.03 in 7.0 mi WNW 5.8 mph - N/A   Clear
3:04 AM 32.0 °F 24.8 °F 28.4 °F 87% 30.03 in 7.0 mi NW 8.1 mph - N/A   Clear
3:25 AM 32.0 °F 24.8 °F 30.2 °F 93% 30.04 in 7.0 mi WNW 8.1 mph - N/A   Scattered Clouds
3:45 AM 32.0 °F 24.8 °F 30.2 °F 93% 30.05 in 7.0 mi WNW 8.1 mph - N/A   Scattered Clouds
4:05 AM 32.0 °F 24.8 °F 30.2 °F 93% 30.05 in 7.0 mi WNW 8.1 mph - N/A   Clear
4:25 AM 32.0 °F 26.4 °F 30.2 °F 93% 30.06 in 7.0 mi WNW 5.8 mph - N/A   Clear
4:45 AM 32.0 °F 25.6 °F 30.2 °F 93% 30.06 in 7.0 mi WNW 6.9 mph - N/A   Mostly Cloudy
5:05 AM 33.8 °F - 30.2 °F 87% 30.07 in 7.0 mi Calm Calm - N/A   Overcast
5:25 AM 33.8 °F 28.6 °F 30.2 °F 87% 30.07 in 7.0 mi WNW 5.8 mph - N/A   Overcast
5:45 AM 33.8 °F 28.6 °F 30.2 °F 87% 30.09 in 7.0 mi WNW 5.8 mph - N/A   Overcast
6:05 AM 33.8 °F 29.6 °F 32.0 °F 93% 30.10 in 7.0 mi West 4.6 mph - N/A   Overcast
6:25 AM 33.8 °F 27.0 °F 30.2 °F 87% 30.10 in 7.0 mi West 8.1 mph - N/A   Mostly Cloudy
6:45 AM 33.8 °F 24.8 °F 28.4 °F 81% 30.12 in 10.0 mi WNW 12.7 mph - N/A   Scattered Clouds
7:05 AM 33.8 °F 25.8 °F 28.4 °F 81% 30.13 in 10.0 mi WNW 10.4 mph - N/A   Mostly Cloudy
7:25 AM 33.8 °F 25.8 °F 28.4 °F 81% 30.13 in 10.0 mi WNW 10.4 mph - N/A   Mostly Cloudy
7:45 AM 33.8 °F 27.0 °F 26.6 °F 75% 30.15 in 10.0 mi WNW 8.1 mph - N/A   Scattered Clouds
8:05 AM 33.8 °F 25.8 °F 26.6 °F 75% 30.16 in 10.0 mi WNW 10.4 mph - N/A   Scattered Clouds
8:25 AM 33.8 °F 26.4 °F 24.8 °F 70% 30.16 in 10.0 mi WNW 9.2 mph - N/A   Scattered Clouds
8:45 AM 33.8 °F 25.3 °F 23.0 °F 65% 30.16 in 10.0 mi WNW 11.5 mph 17.3 mph N/A   Clear
9:05 AM 35.6 °F 28.0 °F 21.2 °F 56% 30.18 in 10.0 mi WNW 10.4 mph 18.4 mph N/A   Clear
9:25 AM 35.6 °F 27.5 °F 21.2 °F 56% 30.18 in 10.0 mi WNW 11.5 mph 17.3 mph N/A   Clear
9:45 AM 35.6 °F 26.2 °F 21.2 °F 56% 30.18 in 10.0 mi WNW 15.0 mph 18.4 mph N/A   Clear
10:05 AM 35.6 °F 25.9 °F 21.2 °F 56% 30.18 in 10.0 mi WNW 16.1 mph 21.9 mph N/A   Clear
10:25 AM 35.6 °F 25.5 °F 19.4 °F 52% 30.19 in 10.0 mi WNW 17.3 mph 21.9 mph N/A   Clear
10:45 AM 37.4 °F 28.5 °F 19.4 °F 48% 30.19 in 10.0 mi WNW 15.0 mph 26.5 mph N/A   Clear
11:05 AM 37.4 °F 28.5 °F 17.6 °F 45% 30.18 in 10.0 mi WNW 15.0 mph 24.2 mph N/A   Clear
11:25 AM 37.4 °F 28.2 °F 17.6 °F 45% 30.18 in 10.0 mi WNW 16.1 mph 24.2 mph N/A   Clear
11:45 AM 37.4 °F 29.3 °F 19.4 °F 48% 30.18 in 10.0 mi WNW 12.7 mph 23.0 mph N/A   Clear
12:06 PM 37.4 °F 29.3 °F 19.4 °F 48% 30.17 in 10.0 mi West 12.7 mph 19.6 mph N/A   Scattered Clouds
12:26 PM 37.4 °F 28.9 °F 19.4 °F 48% 30.17 in 10.0 mi WNW 13.8 mph 19.6 mph N/A   Scattered Clouds
12:46 PM 39.2 °F 31.2 °F 17.6 °F 42% 30.17 in 10.0 mi WNW 13.8 mph - N/A   Scattered Clouds
1:06 PM 37.4 °F 29.3 °F 19.4 °F 48% 30.16 in 10.0 mi WNW 12.7 mph - N/A   Scattered Clouds
1:26 PM 39.2 °F 32.5 °F 19.4 °F 45% 30.17 in 10.0 mi West 10.4 mph - N/A   Scattered Clouds
1:46 PM 37.4 °F 30.3 °F 17.6 °F 45% 30.17 in 10.0 mi WNW 10.4 mph - N/A   Scattered Clouds
2:06 PM 37.4 °F 29.3 °F 19.4 °F 48% 30.17 in 10.0 mi West 12.7 mph 23.0 mph N/A   Scattered Clouds
2:26 PM 37.4 °F 30.3 °F 19.4 °F 48% 30.18 in 10.0 mi WNW 10.4 mph 16.1 mph N/A   Mostly Cloudy
2:46 PM 37.4 °F 31.4 °F 21.2 °F 52% 30.18 in 10.0 mi WNW 8.1 mph - N/A   Mostly Cloudy
3:06 PM 39.2 °F 33.0 °F 19.4 °F 45% 30.18 in 10.0 mi NW 9.2 mph - N/A   Scattered Clouds
3:26 PM 37.4 °F 30.3 °F 19.4 °F 48% 30.18 in 10.0 mi WNW 10.4 mph 16.1 mph N/A   Clear
3:46 PM 39.2 °F 34.2 °F 21.2 °F 49% 30.18 in 10.0 mi WNW 6.9 mph - N/A   Clear
4:06 PM 37.4 °F 31.4 °F 21.2 °F 52% 30.19 in 10.0 mi WNW 8.1 mph - N/A   Clear
4:26 PM 37.4 °F 32.1 °F 19.4 °F 48% 30.19 in 10.0 mi West 6.9 mph - N/A   Clear
4:46 PM 37.4 °F 34.9 °F 21.2 °F 52% 30.19 in 10.0 mi West 3.5 mph - N/A   Clear
5:06 PM 37.4 °F 34.9 °F 21.2 °F 52% 30.20 in 10.0 mi West 3.5 mph - N/A   Clear
5:26 PM 35.6 °F - 23.0 °F 60% 30.20 in 10.0 mi Calm Calm - N/A   Clear
5:46 PM 33.8 °F - 23.0 °F 65% 30.20 in 10.0 mi Calm Calm - N/A   Clear
6:06 PM 33.8 °F - 23.0 °F 65% 30.21 in 10.0 mi Calm Calm - N/A   Clear
6:26 PM 32.0 °F - 23.0 °F 69% 30.21 in 10.0 mi Calm Calm - N/A   Clear
6:46 PM 32.0 °F - 23.0 °F 69% 30.22 in 10.0 mi Calm Calm - N/A   Clear
7:06 PM 32.0 °F - 26.6 °F 80% 30.23 in 10.0 mi Calm Calm - N/A   Clear
7:26 PM 32.0 °F - 26.6 °F 80% 30.23 in 10.0 mi Calm Calm - N/A   Clear
7:46 PM 32.0 °F - 26.6 °F 80% 30.23 in 10.0 mi Calm Calm - N/A   Clear
8:06 PM 32.0 °F 28.7 °F 24.8 °F 75% 30.23 in 10.0 mi SE 3.5 mph - N/A   Clear
8:26 PM 30.2 °F - 26.6 °F 86% 30.23 in 10.0 mi Calm Calm - N/A   Clear
8:47 PM 30.2 °F - 26.6 °F 86% 30.23 in 10.0 mi Calm Calm - N/A   Clear
9:07 PM 30.2 °F - 24.8 °F 80% 30.24 in 10.0 mi Calm Calm - N/A   Clear
9:27 PM 30.2 °F 25.4 °F 26.6 °F 86% 30.24 in 10.0 mi South 4.6 mph - N/A   Clear
9:47 PM 32.0 °F 28.7 °F 26.6 °F 80% 30.23 in 10.0 mi SSE 3.5 mph - N/A   Clear
10:07 PM 32.0 °F - 28.4 °F 87% 30.24 in 10.0 mi Calm Calm - N/A   Clear
10:27 PM 32.0 °F - 28.4 °F 87% 30.24 in 10.0 mi Calm Calm - N/A   Clear
10:47 PM 30.2 °F - 26.6 °F 86% 30.25 in 10.0 mi Calm Calm - N/A   Clear
11:07 PM 30.2 °F 26.7 °F 26.6 °F 86% 30.24 in 10.0 mi SSE 3.5 mph - N/A   Clear
11:27 PM 30.2 °F 26.7 °F 28.4 °F 93% 30.23 in 10.0 mi SSE 3.5 mph - N/A   Clear
11:47 PM 30.2 °F - 28.4 °F 93% 30.23 in 10.0 mi Calm Calm - N/A   Clear